Regional Weather Roundup
Issued by NWS

Home | Current Version | Previous Version | Text Only | Print | Product List | Glossary On
Versions: 1 2 3 4 5 6 7 8 9 10 11 12 13 14 15 16 17 18 19 20 21 22 23 24 25 26 27 28 29 30 31 32 33 34 35 36 37 38 39 40 41 42 43 44 45 46 47 48 49 50
000
ASUS44 KBMX 311510
RWRAL

ALABAMA REGIONAL WEATHER ROUNDUP
NATIONAL WEATHER SERVICE BIRMINGHAM AL
1000 AM CDT MON AUG 31 2015

NOTE: "FAIR" INDICATES FEW OR NO CLOUDS BELOW 12,000 FEET
WITH NO SIGNIFICANT WEATHER AND/OR OBSTRUCTIONS TO VISIBILITY.

THE REMARK "TC" DENOTES TEMPERATURE IN DEGREES CELSIUS.

ALZ001>011-014-016>018-020-311600-
NORTH ALABAMA

CITY           SKY/WX    TMP DP  RH WIND       PRES   REMARKS
MUSCLE SHOALS  CLOUDY    73  66  78 CALM      30.16R
HUNTSVILLE     PTSUNNY   79  68  69 SE5       30.14R
DECATUR        MOSUNNY   75  69  81 CALM      30.14R
HALEYVILLE     CLOUDY    73  71  93 CALM      30.18R
GADSDEN        CLOUDY    72  64  78 E5        30.14R
$$

ALZ012-013-022-023-030>036-040>044-311600-
WEST CENTRAL ALABAMA

CITY           SKY/WX    TMP DP  RH WIND       PRES   REMARKS
TUSCALOOSA     MOSUNNY   78  69  73 NE3       30.12S
$$

ALZ015-024>027-033>036-040>044-311600-
CENTRAL ALABAMA

CITY           SKY/WX    TMP DP  RH WIND       PRES   REMARKS
BIRMINGHAM     CLOUDY    73  69  87 CALM      30.16R
MONTGOMERY     MOSUNNY   83  70  64 VRB5      30.10R
SHELBY CO ARPT PTSUNNY   78  70  76 NW6       30.13R
MAXWELL AFB    MOSUNNY   79  71  76 E3        30.10R
GREENVILLE     FAIR      83  70  64 CALM      30.10R
$$

ALZ019-021-028-029-037-038-045>048-311600-
EAST CENTRAL ALABAMA

CITY           SKY/WX    TMP DP  RH WIND       PRES   REMARKS
ANNISTON       CLOUDY    73  68  84 E3        30.15R
ALEXANDER CITY PTSUNNY   79  72  79 CALM      30.13S
AUBURN         NOT AVBL
$$

ALZ051>064-311600-
SOUTHWEST ALABAMA

CITY           SKY/WX    TMP DP  RH WIND       PRES   REMARKS
MOBILE         MOSUNNY   84  72  67 NW8       30.10R
BROOKLEY FIELD SUNNY     87  71  58 NW7       30.10R HX  93
EVERGREEN      SUNNY     83  69  62 CALM      30.10R
$$

ALZ049-050-065>069-311600-
SOUTHEAST ALABAMA

CITY           SKY/WX    TMP DP  RH WIND       PRES   REMARKS
DOTHAN         CLOUDY    74  72  93 NE5       30.14R FOG
OZARK          SUNNY     80  73  77 VRB2      30.10R
TROY           MOSUNNY   79  72  79 VRB5      30.11S
EUFAULA        CLOUDY    81  73  76 CALM      30.11R
$$



USA.gov is the U.S. government's official web portal to all federal, state and local government web resources and services.